Location: Coupvray
(48.8929°N, 2.7967°E)
Time: 13:48:12
(UTC+00:00)

Altair 2 - Pass Details

Date: 26 January 2021
Orbit: 837 x 949 km, 90.2° (Epoch: 28 February)

Event Time Altitude Azimuth Distance (km) Brightness Sun altitude
Rises 17:44:14 0° 173° (S) 3,379 10.9 -11.1°
Reaches altitude 10° 17:46:36 10° 172° (S) 2,446 10.2 -11.5°
Maximum altitude 17:52:04 81° 86° (E) 855 7.6 -12.3°
Drops below altitude 10° 17:57:37 10° 360° (N) 2,481 10.0 -13.2°
Sets 18:00:01 0° 360° (N) 3,431 10.7 -13.6°
